Wind_Speed
24 24 24 23 24 24 23 22 22 20 20 22 24 22 23 26 26 24 27 16 14 17 19 8 6 7 8 12 12 15 2 11 9 7 13 21 17 28 6 2 1 3 3 10 8
25 25 24 24 23 23 23 23 24 23 23 23 23 23 22 25 28 27 18 6 3 3 7 10 9 10 11 13 9 6 3 8 7 15 13 27 19 26 15 11 11 12 15 16 17
24 24 24 24 24 23 24 23 24 24 23 24 23 22 21 22 24 5 4 4 1 8 18 13 12 11 16 17 19 8 13 13 20 27 31 22 29 33 18 10 18 12 16 16 14
25 25 25 25 23 22 21 20 20 20 21 21 23 18 16 12 7 6 7 12 18 22 19 13 6 10 4 6 13 11 21 21 26 28 27 20 33 25 22 20 27 28 28 16 10
21 20 20 20 20 21 19 20 21 20 19 19 17 17 14 8 28 21 30 25 17 14 10 8 12 14 9 8 16 12 11 22 26 27 24 27 20 25 31 28 29 29 34 28 19
18 18 19 19 20 21 19 20 20 21 20 15 15 16 14 13 16 3 6 13 15 16 13 9 10 14 17 17 14 20 27 29 28 30 28 22 26 27 23 29 32 28 33 32 24
17 18 20 20 20 21 20 21 21 19 16 16 13 18 19 35 23 21 14 16 14 16 14 12 16 18 17 13 19 20 17 20 16 15 9 22 29 22 33 36 39 33 36 32 27
17 19 20 20 21 22 19 20 20 16 13 12 12 18 17 23 14 15 13 28 28 18 20 18 18 20 16 18 17 12 11 15 5 13 21 19 36 12 26 25 33 38 37 33 25
17 20 20 20 21 21 20 19 16 7 13 10 12 12 16 4 12 6 11 16 15 15 18 17 12 13 12 5 7 6 13 15 26 15 19 14 27 20 24 28 35 35 32 36 24
19 20 19 20 21 19 18 12 7 7 13 12 17 7 15 11 13 6 5 6 11 10 11 16 8 4 1 4 8 6 8 14 21 13 13 20 22 22 27 29 27 28 26 31 25
19 20 19 19 19 16 14 7 5 5 20 18 15 11 5 5 9 12 11 9 8 7 6 13 6 8 14 13 16 18 18 19 21 16 12 18 19 10 25 32 26 24 9 9 23
19 19 19 17 16 14 10 9 8 6 14 24 32 36 34 24 9 17 11 9 12 8 9 7 15 13 15 16 17 18 17 19 22 18 11 16 21 18 21 22 31 23 19 15 36
19 19 17 16 13 12 16 14 7 5 7 12 30 32 30 29 28 33 29 26 13 11 12 14 7 10 15 15 13 18 9 17 19 16 14 12 20 18 26 24 30 29 30 31 45
19 18 16 10 17 17 21 13 11 3 4 7 9 12 17 17 9 28 37 27 10 19 12 13 16 16 16 16 6 17 7 3 12 9 9 10 12 24 18 20 14 24 24 36 40
20 19 17 21 15 20 18 14 10 7 2 4 7 9 14 19 4 6 24 26 19 16 7 13 9 7 2 2 5 3 7 5 3 7 11 13 7 21 2 14 10 11 19 33 34
20 19 18 20 26 20 12 16 18 3 11 5 7 7 9 25 7 10 9 11 8 4 8 16 4 4 2 3 2 4 4 3 3 1 9 15 14 18 12 7 6 8 15 37 36
17 18 18 25 29 19 16 27 4 6 5 6 5 9 12 9 10 9 8 6 6 3 4 2 8 3 5 4 5 5 5 3 3 4 6 6 7 13 10 11 6 15 21 33 35
12 14 24 28 23 24 32 7 7 13 18 3 5 6 14 11 11 15 13 13 7 6 1 5 5 11 10 13 5 6 8 4 5 2 4 5 5 5 9 22 24 29 38 33 32
10 20 26 27 27 30 26 12 11 8 11 9 17 11 16 9 11 13 18 16 12 13 9 5 6 5 8 6 10 3 6 2 6 5 4 5 4 7 13 8 22 25 30 30 30
13 15 23 24 33 33 10 17 12 15 14 7 4 3 11 10 8 5 2 5 16 13 11 2 2 4 5 8 9 7 6 2 2 3 4 4 1 5 15 12 16 16 21 27 25
9 4 10 23 36 15 9 8 11 22 15 9 5 4 5 3 4 3 3 5 4 6 18 7 4 1 2 5 11 7 9 1 3 3 2 3 3 1 8 9 12 14 21 24 26
14 4 7 23 7 4 7 6 5 12 22 7 6 8 9 8 8 8 8 5 6 5 15 4 1 5 8 3 7 9 17 14 3 2 2 4 2 4 7 1 10 19 24 24 22
11 5 13 27 6 7 4 13 14 9 12 6 7 7 3 3 2 2 4 4 1 4 4 7 3 3 1 3 3 5 4 5 6 3 4 2 2 4 9 6 19 20 20 18 17
11 4 4 14 4 4 7 8 8 14 12 15 5 10 2 5 5 2 3 4 4 4 1 4 2 4 5 3 1 3 10 10 6 3 1 3 5 3 10 11 15 18 20 21 22
11 4 9 5 10 7 8 5 16 9 9 17 9 8 6 5 6 7 4 2 3 5 1 2 3 3 3 6 6 8 3 5 8 5 5 4 8 9 12 11 15 18 16 18 23
7 5 10 5 20 18 13 7 16 17 9 16 8 8 10 7 4 2 7 5 4 4 5 1 3 0 3 8 4 5 6 5 4 5 1 14 10 10 14 15 17 14 15 15 13
21 10 6 2 8 12 17 17 8 13 13 14 10 9 8 8 7 7 10 10 3 6 5 6 3 3 3 7 3 3 2 3 9 13 4 4 8 11 10 11 12 11 12 11 11
Wind_Direction
279 280 284 286 287 288 290 291 293 291 297 303 301 304 310 312 311 312 311 299 282 296 305 334 2 335 304 267 273 275 226 258 257 255 270 305 343 325 291 336 286 133 263 239 259
281 282 283 285 287 287 288 287 288 285 284 292 299 304 305 315 315 307 297 296 312 49 356 346 322 307 270 253 259 184 230 245 245 268 293 308 316 320 325 328 296 246 259 253 258
276 278 279 280 284 285 287 288 288 285 284 282 290 293 311 306 319 278 156 126 3 303 311 297 288 289 276 282 261 253 245 262 266 275 289 297 306 308 314 310 301 301 250 232 252
273 275 278 281 282 283 286 288 291 288 284 283 295 294 298 312 284 214 234 282 296 299 298 301 299 284 287 277 268 267 273 271 275 275 274 282 289 286 291 284 301 298 302 285 255
275 277 280 283 285 286 286 288 289 293 287 285 296 306 307 278 254 265 272 279 290 292 272 264 272 278 254 264 297 271 274 288 298 298 302 306 295 284 275 290 288 288 287 289 267
280 282 284 284 287 286 290 287 286 287 286 281 292 302 295 257 295 202 250 267 263 271 282 263 260 279 290 283 281 288 287 282 284 288 292 292 288 284 286 293 281 273 274 276 275
281 284 285 286 286 287 290 288 285 283 273 288 275 288 276 263 290 269 227 223 244 257 257 259 268 269 287 308 291 302 311 302 285 273 269 281 277 265 279 274 269 268 262 263 258
284 284 284 284 285 287 286 283 280 280 260 276 268 286 265 303 294 260 233 241 237 240 250 258 268 286 287 289 300 298 292 291 242 261 267 252 268 262 266 261 256 260 256 250 238
286 285 285 287 287 291 289 280 276 259 250 272 266 280 268 301 263 240 227 242 248 243 240 250 255 274 279 310 303 227 262 260 285 253 261 250 269 289 324 301 255 251 260 233 224
287 286 286 290 292 290 276 271 294 233 244 263 245 277 259 263 224 190 216 218 218 227 229 225 228 202 227 168 245 256 256 279 287 302 333 312 299 304 302 306 316 257 250 219 208
287 286 284 289 294 275 238 152 187 237 227 209 203 201 207 340 180 179 175 178 200 215 214 223 187 208 228 225 239 256 266 279 291 308 305 289 285 320 314 308 298 281 215 202 152
282 283 283 287 279 266 217 196 211 301 285 257 251 245 249 239 279 215 198 238 191 204 216 250 245 227 231 236 249 259 275 288 293 304 315 308 298 299 295 282 285 295 212 225 127
278 278 274 282 257 239 237 248 231 295 275 262 242 241 235 237 245 242 243 247 225 228 216 225 223 238 248 257 262 258 256 277 284 303 303 308 292 291 270 272 273 278 254 193 138
274 273 268 254 230 232 229 230 225 245 316 270 206 249 213 206 248 247 233 233 220 230 245 248 237 255 262 272 271 284 217 11 350 357 289 53 299 276 281 290 292 246 285 109 107
270 267 259 219 225 209 229 216 197 195 329 235 171 164 167 171 234 188 204 211 226 236 197 245 268 247 290 332 38 282 61 45 336 296 305 276 251 274 314 284 280 310 137 107 105
268 260 253 220 229 237 226 174 160 111 238 271 136 165 145 198 234 131 152 205 204 228 235 254 135 159 226 321 341 56 61 6 306 269 258 270 226 281 256 275 319 17 119 115 103
271 259 224 216 223 220 187 167 171 201 218 229 189 171 186 190 225 230 220 177 164 119 248 324 254 198 187 236 255 97 69 327 287 212 255 274 257 250 293 318 283 136 88 81 87
287 218 212 216 224 206 173 181 191 226 228 234 331 215 202 189 212 204 223 246 205 178 95 197 304 223 194 202 178 148 143 186 254 255 319 334 252 269 6 92 84 87 88 75 74
245 223 215 209 209 198 173 202 209 223 223 234 260 263 272 226 188 205 211 217 227 179 174 210 241 348 157 177 175 171 194 177 290 279 266 235 281 71 60 49 92 83 82 77 71
228 212 219 213 190 180 192 214 232 233 278 292 245 280 241 241 260 192 82 258 236 227 154 180 308 232 198 151 202 156 153 139 193 263 248 267 22 33 21 93 70 71 81 86 76
213 208 223 200 186 190 207 223 232 244 264 247 268 270 247 304 297 177 252 314 357 327 179 142 159 211 42 184 191 188 230 135 159 233 285 311 80 350 68 67 85 84 82 78 77
227 210 219 189 181 233 211 210 217 250 246 257 243 220 237 249 245 258 188 219 326 356 205 162 80 223 218 154 228 224 220 207 180 240 327 347 111 125 95 148 140 110 87 79 79
206 194 179 189 204 212 240 240 242 236 222 215 222 208 268 264 237 309 109 175 214 42 249 140 188 204 275 10 274 241 217 165 186 153 219 261 108 172 159 93 93 94 90 84 75
178 173 150 211 226 230 210 225 226 267 243 225 222 243 222 249 208 220 134 197 238 187 11 169 249 197 171 167 287 229 238 216 159 127 197 281 131 160 84 90 76 82 72 62 53
203 172 182 182 220 215 219 238 219 229 255 213 212 207 183 236 225 225 156 152 232 128 171 109 258 261 312 194 182 286 318 248 215 191 155 229 124 92 77 70 64 66 60 48 41
182 185 187 286 204 203 219 203 230 221 220 215 188 208 207 221 217 194 140 206 173 144 169 99 279 77 336 270 195 254 313 307 307 319 18 116 105 90 78 68 56 53 60 59 46
209 197 195 264 194 183 213 221 250 238 224 229 202 205 225 212 121 331 132 169 236 149 162 153 168 115 232 224 307 321 348 359 85 44 19 61 120 122 93 76 56 69 72 69 61
Height
1524 1524 1524 1523 1523 1522 1522 1522 1522 1522 1520 1519 1518 1518 1515 1512 1511 1508 1506 1506 1505 1505 1507 1505 1505 1503 1506 1507 1507 1506 1512 1507 1504 1497 1486 1480 1482 1478 1473 1472 1471 1472 1474 1476 1476
1520 1520 1519 1520 1519 1518 1518 1517 1518 1517 1517 1516 1516 1514 1513 1510 1509 1503 1501 1501 1502 1503 1506 1505 1504 1504 1506 1504 1505 1504 1509 1499 1494 1489 1487 1481 1480 1479 1476 1474 1472 1471 1472 1474 1474
1515 1515 1515 1515 1515 1514 1513 1514 1513 1513 1513 1513 1512 1512 1511 1510 1507 1498 1499 1500 1502 1501 1503 1503 1503 1503 1502 1500 1499 1496 1497 1492 1489 1487 1483 1481 1475 1475 1474 1472 1472 1473 1471 1470 1470
1510 1510 1511 1511 1509 1509 1508 1509 1508 1508 1508 1509 1508 1509 1509 1509 1510 1498 1497 1497 1498 1498 1499 1499 1500 1502 1501 1499 1494 1494 1489 1487 1484 1484 1481 1477 1476 1471 1471 1470 1472 1470 1470 1470 1468
1506 1506 1506 1506 1505 1506 1504 1505 1505 1504 1504 1506 1506 1506 1506 1505 1492 1496 1494 1494 1494 1496 1496 1497 1498 1498 1498 1496 1494 1489 1484 1482 1481 1480 1479 1477 1472 1468 1461 1467 1468 1468 1467 1466 1465
1502 1502 1502 1501 1501 1501 1500 1501 1500 1500 1500 1502 1503 1503 1503 1501 1487 1488 1490 1491 1492 1493 1494 1497 1496 1496 1493 1493 1495 1491 1485 1480 1477 1475 1474 1475 1465 1467 1465 1466 1463 1463 1462 1461 1461
1497 1498 1499 1497 1495 1495 1496 1496 1496 1495 1497 1499 1500 1499 1496 1485 1484 1484 1485 1486 1488 1490 1490 1493 1494 1496 1493 1491 1490 1488 1485 1477 1476 1473 1474 1474 1455 1460 1461 1461 1454 1454 1453 1455 1455
1492 1494 1494 1493 1490 1491 1491 1491 1491 1491 1495 1496 1496 1495 1485 1479 1476 1475 1477 1479 1482 1485 1487 1489 1491 1490 1491 1490 1488 1490 1488 1483 1469 1472 1469 1473 1447 1453 1452 1449 1445 1446 1445 1446 1449
1486 1490 1489 1488 1486 1486 1486 1485 1486 1488 1492 1494 1493 1493 1479 1475 1472 1472 1473 1474 1478 1480 1482 1484 1488 1488 1490 1492 1494 1490 1490 1485 1461 1469 1463 1466 1451 1444 1447 1446 1437 1435 1436 1438 1441
1482 1485 1484 1483 1482 1481 1480 1480 1483 1487 1488 1492 1490 1494 1474 1469 1469 1470 1472 1474 1476 1477 1479 1480 1484 1487 1489 1494 1496 1490 1488 1478 1470 1468 1465 1462 1454 1440 1442 1441 1436 1427 1427 1430 1435
1477 1479 1479 1478 1477 1475 1480 1480 1489 1486 1481 1474 1469 1467 1465 1467 1467 1470 1470 1473 1475 1476 1477 1475 1483 1488 1481 1480 1479 1478 1477 1474 1461 1462 1465 1458 1456 1450 1439 1440 1436 1431 1424 1427 1431
1472 1474 1474 1474 1473 1472 1478 1479 1480 1481 1470 1463 1463 1461 1463 1464 1469 1466 1468 1471 1472 1474 1472 1476 1471 1471 1471 1472 1474 1472 1472 1469 1461 1457 1462 1457 1454 1448 1440 1433 1434 1430 1419 1424 1429
1466 1468 1469 1468 1470 1471 1473 1476 1478 1480 1472 1453 1451 1446 1452 1459 1454 1455 1461 1463 1466 1469 1470 1469 1461 1462 1464 1465 1466 1463 1469 1468 1465 1457 1455 1458 1450 1444 1430 1428 1424 1420 1424 1418 1416
1459 1462 1464 1465 1469 1467 1470 1475 1478 1481 1482 1447 1442 1435 1442 1450 1448 1441 1449 1458 1458 1461 1465 1460 1460 1459 1459 1458 1461 1461 1459 1468 1469 1472 1472 1464 1463 1437 1433 1430 1422 1421 1422 1420 1420
1453 1456 1458 1460 1461 1461 1466 1474 1479 1481 1493 1432 1431 1431 1430 1441 1434 1435 1441 1449 1450 1452 1460 1452 1454 1456 1459 1457 1460 1463 1464 1470 1474 1476 1473 1459 1473 1419 1430 1424 1419 1419 1425 1424 1428
1446 1448 1452 1456 1455 1460 1465 1474 1477 1484 1472 1431 1426 1428 1431 1437 1434 1438 1441 1444 1444 1448 1451 1449 1453 1456 1457 1456 1458 1461 1465 1468 1472 1477 1471 1453 1456 1420 1426 1419 1422 1427 1427 1419 1429
1440 1442 1445 1449 1450 1457 1462 1471 1477 1472 1433 1424 1422 1423 1427 1431 1433 1434 1439 1444 1448 1457 1458 1449 1449 1451 1454 1459 1458 1464 1471 1482 1486 1473 1462 1434 1439 1431 1420 1415 1413 1424 1429 1424 1431
1435 1437 1438 1442 1448 1452 1459 1466 1460 1435 1430 1413 1419 1417 1422 1424 1427 1431 1436 1440 1439 1443 1449 1453 1458 1442 1447 1450 1454 1460 1469 1481 1471 1466 1453 1444 1443 1429 1424 1420 1425 1424 1423 1433 1438
1434 1433 1436 1438 1443 1447 1451 1449 1441 1429 1420 1424 1421 1423 1419 1416 1419 1425 1428 1431 1431 1435 1449 1450 1445 1437 1436 1441 1451 1458 1468 1463 1470 1463 1465 1447 1429 1426 1432 1427 1431 1427 1429 1435 1443
1432 1431 1432 1434 1436 1442 1446 1437 1428 1424 1422 1423 1424 1421 1418 1417 1420 1420 1430 1422 1423 1423 1430 1440 1449 1436 1435 1442 1446 1448 1453 1470 1472 1464 1453 1431 1430 1452 1447 1443 1440 1442 1442 1445 1449
1429 1431 1428 1431 1434 1441 1433 1431 1424 1421 1421 1422 1422 1423 1421 1420 1420 1425 1431 1428 1426 1425 1427 1438 1443 1442 1437 1440 1440 1446 1451 1456 1462 1461 1453 1440 1442 1463 1456 1454 1453 1451 1454 1455 1457
1427 1425 1425 1428 1435 1432 1426 1425 1420 1420 1419 1418 1421 1420 1422 1418 1420 1421 1424 1426 1427 1424 1427 1432 1440 1443 1437 1433 1434 1435 1441 1445 1460 1456 1456 1449 1448 1459 1456 1457 1456 1455 1459 1459 1460
1419 1421 1421 1425 1423 1425 1424 1421 1418 1415 1417 1419 1415 1415 1415 1417 1421 1420 1421 1426 1427 1429 1431 1434 1447 1444 1436 1436 1434 1433 1431 1436 1442 1450 1450 1452 1452 1453 1455 1455 1456 1458 1461 1462 1462
1412 1416 1418 1421 1420 1419 1418 1418 1419 1416 1411 1410 1409 1413 1416 1417 1415 1418 1425 1426 1426 1425 1430 1430 1427 1428 1435 1436 1437 1433 1430 1429 1436 1455 1447 1445 1446 1454 1452 1457 1459 1462 1461 1461 1461
1403 1401 1407 1413 1414 1415 1414 1411 1411 1409 1404 1405 1408 1409 1416 1420 1415 1418 1420 1426 1426 1426 1431 1435 1436 1426 1423 1428 1427 1429 1425 1425 1428 1433 1446 1438 1448 1456 1460 1462 1463 1464 1464 1462 1460
1395 1400 1402 1400 1403 1410 1411 1403 1404 1404 1406 1404 1406 1407 1410 1414 1414 1417 1420 1430 1424 1427 1430 1433 1439 1429 1432 1426 1426 1431 1428 1427 1428 1428 1430 1443 1459 1463 1464 1465 1466 1467 1467 1469 1470
1392 1394 1396 1395 1397 1404 1402 1398 1395 1396 1396 1395 1398 1403 1405 1408 1414 1416 1417 1418 1422 1426 1431 1434 1436 1435 1442 1428 1428 1438 1434 1431 1434 1443 1439 1448 1456 1464 1467 1469 1472 1471 1472 1473 1473